Regional Weather Roundup
Issued by NWS

Home | Current Version | Previous Version | Graphics & Text | Print | Product List | Glossary On
Versions: 1 2 3 4 5 6 7 8 9 10 11 12 13 14 15 16 17 18 19 20 21 22 23 24 25 26 27 28 29 30 31 32 33 34 35 36 37 38 39 40 41 42 43 44 45 46 47 48 49 50
000
ASUS43 KFSD 171602
RWRSD

WEATHER ROUNDUP FOR SOUTH DAKOTA
NATIONAL WEATHER SERVICE SIOUX FALLS SD
1000 AM CST SAT FEB 17 2018

NOTE: "FAIR" INDICATES FEW OR NO CLOUDS BELOW 12,000 FEET WITH NO
SIGNIFICANT WEATHER AND/OR OBSTRUCTIONS TO VISIBILITY.


SDZ001>005-009-010-012>017-171700-
NORTHWEST AND NORTH CENTRAL SOUTH DAKOTA

CITY           SKY/WX    TMP DP  RH WIND       PRES   REMARKS
BUFFALO          N/A     17  11  77 NW25      29.89R WCI  -1
FAITH            N/A     19  16  88 NW15      30.00R WCI   5
MOBRIDGE       SUNNY     24  16  71 NW13      29.94R WCI  12
$$

SDZ012>016-024>037-041>051-057-063-072>074-171700-
SOUTHWEST AND SOUTH CENTRAL SOUTH DAKOTA

CITY           SKY/WX    TMP DP  RH WIND       PRES   REMARKS
RAPID CTY ARPT MOSUNNY   30  23  75 N15       29.98R WCI  19
PIERRE         CLOUDY    26  23  88 NW14      29.99R WCI  14
CUSTER         SUNNY     25   8  48 NW9       29.90R WCI  15
ELLSWORTH AFB  MOSUNNY   28  24  87 N20       29.97R WCI  15
PHILIP         PTSUNNY   26  22  84 CALM      30.01R
PINE RIDGE     SUNNY     28  18  66 SW7       30.03R WCI  21
SPEARFISH        N/A     27  18  69 W12       29.96S WCI  16
WINNER         CLOUDY    32  24  72 NW16      29.99R WCI  21
$$

SDZ004>011-016>023-039-040-171700-
NORTHEAST SOUTH DAKOTA

CITY           SKY/WX    TMP DP  RH WIND       PRES   REMARKS
ABERDEEN       PTSUNNY   24  18  77 NW8       29.97R WCI  15
WATERTOWN      CLOUDY    25  19  78 NW8       29.89R WCI  16
BROOKINGS      CLOUDY    27  24  89 NW13      29.91R WCI  16
SISSETON         N/A     28  18  66 NW14      29.91R WCI  17
$$

SDZ017-020-022-023-036>040-048>070-171700-
SOUTHEAST SOUTH DAKOTA

CITY           SKY/WX    TMP DP  RH WIND       PRES   REMARKS
SIOUX FALLS    CLOUDY    27  24  89 W12       29.92R WCI  17
HURON          LGT SNOW  25  22  88 NW15      29.97R FOG     WCI  13
CHAMBERLAIN    LGT SNOW  29  27  94 W10       29.98R WCI  20
MITCHELL       LGT SNOW  27  22  81 NW9       29.98R WCI  18
YANKTON        MOSUNNY   34  24  67 W13       29.95R WCI  25
$$

ABBREVIATIONS USED IN REMARKS
   TC - TEMPERATURE IN CELSIUS
  WCI - WIND CHILL INDEX
   HX - HEAT INDEX
  VSB - VISIBILITY





USA.gov is the U.S. government's official web portal to all federal, state and local government web resources and services.